Temp_Advection
nan nan nan nan nan nan nan nan nan nan nan nan nan nan nan nan nan nan nan nan nan nan nan nan nan nan nan nan nan nan nan nan nan nan nan nan nan nan nan nan nan nan nan nan nan nan nan nan nan nan nan nan nan nan nan nan nan nan nan nan nan nan nan nan nan nan nan nan nan nan nan nan nan nan
nan 0 -0 0 0 0 0 0 0 0 -1 -1 -0 -0 -0 -0 -0 -0 -1 -1 -0 -0 -0 -0 -1 -1 -0 -0 -1 -2 -1 -1 -2 -2 -2 -1 -1 -1 -1 -0 0 0 0 1 1 1 0 0 0 1 1 1 0 1 1 1 0 0 1 1 0 -0 -0 -1 -2 -2 -1 -3 -5 -4 -2 -0 0 nan
nan 0 -0 -0 0 0 0 -0 -0 -0 -1 -1 -1 -0 -0 -0 -0 -1 -0 -1 -0 -0 -0 -1 -0 -1 -1 -1 -1 -1 -0 -1 -1 -1 -1 -0 -0 -1 -1 -0 0 0 0 1 1 1 0 0 0 1 0 0 1 1 1 1 0 0 -0 0 0 1 0 -0 -1 -2 -2 -2 -4 -4 -2 -1 -0 nan
nan 0 0 -0 -0 -0 -0 -0 -0 -0 -0 -1 -0 -0 -0 -1 -1 -1 -0 -1 -1 0 0 -0 -0 -0 -1 -1 -0 -0 -0 -0 -1 -1 -0 -0 -0 -0 -1 -0 0 1 0 0 1 0 0 1 1 1 1 1 1 1 1 1 0 0 -0 -0 -1 0 1 0 -1 -1 -1 -1 -3 -4 -3 -1 -0 nan
nan 0 0 0 -0 -1 -0 -0 0 0 -0 -0 -0 -0 -0 -0 -1 -0 -0 -0 -1 -1 0 -0 -0 -0 -0 -0 -0 -0 0 -0 -0 -0 -0 0 -0 -0 -0 -0 -0 0 0 0 0 0 0 1 1 1 1 1 1 1 1 1 0 0 0 -0 -1 -1 -0 0 -0 -1 -1 -1 -2 -5 -4 -2 -1 nan
nan -0 0 0 0 -0 -1 -0 0 0 -0 -0 -0 -0 -0 -0 -0 -0 -0 -0 -1 -1 -1 -0 -0 -0 0 -0 -0 0 0 0 0 -0 -0 0 0 0 0 -0 -0 0 1 0 0 0 0 0 1 1 1 1 1 1 1 1 0 0 0 0 0 -0 -0 -0 -1 -1 -0 0 -1 -4 -5 -3 -1 nan
nan 0 0 0 -0 -0 -0 0 0 0 -1 -0 -0 -0 -0 -0 -0 0 -0 -0 -0 -1 -1 -0 -0 -0 0 0 -0 -0 0 0 0 -0 -0 -0 0 0 0 -0 -0 0 0 0 0 0 0 1 0 1 1 1 1 1 1 0 0 0 0 0 0 0 0 -0 -1 -1 -1 0 0 -3 -5 -3 -2 nan
nan 0 0 0 -0 -0 -0 0 0 0 -0 -0 -0 -0 0 0 0 0 0 0 -0 -0 -1 -0 -0 -0 -0 -0 -0 -0 -0 0 0 -0 -0 -0 0 0 0 0 -0 0 0 0 0 1 0 1 1 1 1 1 1 0 0 1 0 0 0 0 0 1 0 0 -0 -1 -1 -1 -0 -2 -4 -3 -2 nan
nan 0 0 0 0 -0 -0 0 0 0 -0 -0 0 0 0 0 0 0 0 0 -0 -0 -0 -0 -0 -0 -0 -0 -0 -0 -0 -0 -0 -0 -1 -1 -0 -0 0 0 -0 0 0 0 0 1 1 1 1 1 0 1 1 0 0 1 0 0 0 0 0 1 0 0 0 -0 -1 -1 -1 -2 -3 -3 -1 nan
nan 0 0 0 0 -0 -0 -0 0 0 -0 -0 0 0 0 0 0 0 0 0 -0 -0 -0 -0 -0 -0 -0 -0 -0 -0 -0 -0 -1 -0 -1 -1 -1 -1 -0 -0 -0 -0 -0 0 1 1 1 1 1 1 0 0 0 0 0 1 1 0 0 0 0 1 0 0 0 0 -0 -0 -1 -2 -3 -2 -1 nan
nan -0 0 0 -0 -0 -0 -0 0 0 -0 -0 0 0 0 0 -0 -0 -0 0 -0 -0 -0 -0 -0 -0 -0 -0 -0 -0 -0 -0 -1 -1 -1 -2 -1 -1 -1 -1 -0 -0 -0 0 1 1 1 1 0 1 0 0 0 0 0 0 1 0 0 0 0 0 0 0 0 0 0 0 -0 -2 -3 -2 -1 nan
nan -0 -0 -0 -0 -0 -0 -0 0 -0 -0 -0 0 0 -0 -0 -0 -0 -0 -0 -0 -0 -0 -0 -1 -1 -1 -0 -0 -0 -0 -0 -0 -0 -1 -1 -1 -0 -0 -1 -1 -0 -0 0 1 1 0 0 -0 -0 -0 -0 -1 -0 -0 -0 -0 0 0 0 0 0 0 0 0 0 1 0 0 -1 -2 -3 -2 nan
nan 0 -0 -0 -0 0 0 0 -0 -0 -0 -0 -0 -0 -0 -0 -0 -0 0 0 0 0 0 -0 -0 -1 -1 -1 -0 -0 -0 -0 -1 -0 -0 -1 -1 -1 -1 -1 -1 -0 -0 0 1 1 -0 -0 -0 -1 -1 -1 -1 -1 -1 -1 -1 -0 -0 -0 0 0 0 0 0 0 0 0 1 0 -1 -2 -2 nan
nan 0 -0 -0 0 -0 -0 -0 -0 -0 -0 -0 -0 -0 -0 0 0 0 0 1 0 -0 0 0 -0 -1 -1 -0 -0 -0 -0 -0 -1 -1 -1 -1 -1 -1 -1 -1 -0 -0 -0 -0 1 2 1 -0 -0 -0 -0 -1 -1 -1 -1 -1 -1 -1 -1 -1 -0 -0 0 0 -0 -0 0 -0 0 1 -0 -1 -2 nan
nan 0 -0 -0 -0 -0 -0 -0 0 0 -0 -0 -0 -0 -0 -0 0 0 0 0 -0 -0 -0 -0 -0 -0 -1 -0 -0 -0 -0 -0 -0 -1 -0 -1 -1 -1 -1 -1 -1 -0 0 0 1 2 2 1 -0 -0 -0 -0 -1 -1 -1 -1 -1 -1 -1 -1 -1 -0 -0 0 -0 -0 0 -0 -0 -0 -0 -0 -1 nan
nan 0 -0 -0 -0 -0 -0 -0 -0 -0 0 0 0 -0 -0 -1 -1 -1 -0 -0 -0 -0 -1 -1 -0 0 0 -0 0 1 0 -0 -0 -1 -0 -0 -1 -1 -1 -1 -1 -0 1 1 1 2 3 2 2 1 0 -0 -0 -1 -1 -1 -1 -1 -0 -1 -1 -1 -0 0 0 -0 -0 -0 -0 -0 -0 -1 -1 nan
nan 0 -0 -0 -0 -0 -0 -0 -0 -0 -0 0 0 -0 -1 -1 -1 -1 -1 -1 -0 0 -0 -0 0 1 1 0 1 1 1 0 0 0 0 0 0 -0 -1 -1 -1 -0 1 1 1 2 3 3 3 2 1 1 0 -0 -0 -1 -1 -1 -1 -0 -1 -1 -0 -0 0 0 -0 -0 -0 -0 -1 -1 -1 nan
nan 0 -0 -0 -0 -0 -0 -0 0 0 -0 0 0 -0 -0 -0 -0 -0 -1 -1 -0 0 1 0 0 1 1 1 1 1 1 1 1 1 0 1 1 -0 -0 -0 -1 -1 0 1 1 2 2 3 2 2 2 1 1 0 -0 -0 -1 -1 -1 -0 -0 -0 -0 -0 0 0 -0 -1 -0 -1 -1 -1 -1 nan
nan -0 -0 -0 -0 -0 -0 -0 -0 0 0 0 0 0 0 0 0 0 0 0 0 0 1 1 1 1 1 1 0 1 1 1 1 1 0 1 1 -0 -0 -0 -0 -0 0 1 1 1 1 2 2 1 1 1 1 1 0 -0 -0 -1 -1 -1 -0 -0 0 0 0 0 0 -1 -1 -1 -1 -1 -1 nan
nan -0 -1 -0 0 -0 -1 -0 0 0 0 0 0 0 0 0 0 0 -0 0 0 0 0 0 0 -0 -0 -0 -1 -1 -0 1 1 1 0 0 0 -0 -1 -0 -0 -0 0 1 1 1 1 2 2 1 0 1 1 1 1 1 0 -0 -0 -1 -0 -0 0 0 0 0 0 -0 -0 -0 -0 -1 -1 nan
nan -1 -0 0 -0 -1 -1 -0 0 0 0 0 0 0 0 0 0 0 -0 -0 0 0 0 -0 -1 -1 -1 -1 -1 -1 -1 0 1 1 0 0 0 -0 -0 -0 -1 -1 -0 1 1 1 1 1 2 1 -0 0 1 1 1 1 0 0 -0 -0 -1 -0 -0 0 0 0 0 0 0 0 -0 -0 -1 nan
nan -1 -0 -0 -0 -1 -0 -0 0 0 0 0 0 0 0 -0 -0 -0 -0 -0 -0 -0 -0 -1 -1 -1 -0 -0 -0 -0 -0 0 1 1 0 -0 -0 -0 -0 -0 -0 -1 -0 0 1 1 1 1 2 2 -0 -1 1 1 1 0 -0 -0 -0 -0 -1 -1 -0 -0 -0 0 0 0 0 0 0 -0 -0 nan
nan -1 -0 -0 -0 -0 -0 0 0 0 0 0 -0 -0 -0 0 -0 -0 -0 -0 -0 -1 -1 -1 -0 0 0 0 1 1 0 0 0 1 0 0 -0 -0 -0 -0 -0 -1 -1 0 0 1 1 1 1 2 1 -1 -1 1 1 1 0 -1 -1 -1 -1 -1 -0 0 -0 -0 0 0 0 0 0 0 -0 nan
nan -1 -0 0 -0 -0 -0 0 0 0 0 0 -0 -0 0 0 -0 -0 -0 -0 -1 -1 -0 0 0 0 0 0 0 0 0 0 0 0 1 1 0 -0 -0 -0 -0 -1 -1 0 0 1 1 2 1 1 1 1 -1 -0 0 1 1 -0 -1 -1 -1 -1 -1 -0 0 0 -0 -0 0 0 0 -0 -0 nan
nan -0 -0 -0 -0 -0 0 0 0 0 0 -0 -0 -0 0 0 0 -0 -0 -1 -1 -0 0 0 0 0 0 0 0 0 0 0 -0 -0 0 1 0 0 -0 -0 -0 -0 -0 0 1 1 1 2 1 1 1 2 1 0 0 1 0 0 0 -0 -1 -1 -1 -0 -0 0 -0 -0 -0 0 0 -0 -0 nan
nan 0 0 -1 -1 -0 0 0 0 0 0 -0 -0 -0 -0 0 -0 -0 -0 -0 0 0 0 0 0 0 -0 -0 -0 -0 -0 0 0 -0 0 0 0 0 0 0 -0 -0 -0 0 1 1 1 2 2 1 1 1 2 1 1 0 0 0 1 1 1 -0 -0 -0 -0 -0 0 -0 -0 0 0 0 -0 nan
nan 0 -0 -1 -1 -0 0 0 0 0 0 -0 -0 -0 -0 -0 -0 -0 -0 0 0 -0 -0 0 0 -0 -0 -0 -0 -0 -0 0 0 0 0 0 0 0 0 0 0 0 0 0 0 1 1 2 3 2 1 1 1 1 1 1 0 -0 -0 1 1 0 0 0 0 -0 0 0 -0 0 0 0 -0 nan
nan 0 -1 -1 -0 0 0 0 0 0 0 0 -0 -0 -0 -0 -0 0 0 0 0 -0 0 0 0 -0 -0 -0 -0 0 0 0 0 0 -0 -0 0 0 0 0 0 0 0 -0 0 0 1 2 2 2 2 1 1 1 1 0 1 -0 -1 -1 0 0 1 1 0 0 0 0 -0 0 0 0 -0 nan
nan -1 -1 -0 0 0 0 0 0 0 0 0 0 0 0 0 0 0 0 0 0 0 0 -0 -0 -0 -0 -0 0 0 0 0 0 0 0 0 0 0 0 0 0 0 0 -0 -0 0 1 1 2 2 2 2 1 1 1 0 1 1 0 -1 -0 1 1 1 0 0 0 0 0 0 0 0 0 nan
nan -1 -0 0 0 0 0 0 0 0 0 0 0 0 0 0 0 0 0 0 0 0 -0 -0 -0 -0 -0 0 0 0 0 0 0 0 0 -0 -0 0 -0 -0 0 -0 -0 0 0 0 0 1 1 1 2 2 2 1 1 1 1 1 2 1 0 1 1 0 0 0 0 0 0 0 0 0 0 nan
nan 0 0 0 0 0 0 0 0 0 0 0 0 0 0 0 0 0 0 0 0 0 0 -0 -0 -0 -0 0 0 0 0 0 -0 0 0 0 0 0 -0 -0 -0 -0 -0 0 0 0 0 1 1 1 1 2 2 1 1 2 2 1 2 2 1 1 1 1 0 0 0 -0 -0 -0 -0 0 -0 nan
nan 0 0 0 0 0 0 0 0 0 0 0 0 0 0 0 0 0 0 0 0 0 0 0 -0 0 0 -0 0 0 -0 -0 -0 0 0 1 0 0 -0 -0 -0 -0 -0 0 0 0 0 0 1 1 1 1 2 2 1 2 2 2 1 1 2 2 1 0 0 1 0 -0 -0 0 -0 -0 -0 nan
nan 0 0 0 0 0 -0 -0 -0 -0 -0 0 0 0 0 0 -0 0 0 0 0 0 0 0 0 0 -0 -0 0 -0 -0 -0 0 0 0 1 0 0 -0 -0 -1 -0 -0 -0 -0 -0 0 0 1 0 0 1 2 2 1 1 1 2 2 1 1 1 0 0 0 1 0 0 0 0 -0 -0 -0 nan
nan 0 0 0 0 -0 -0 -1 -1 -0 0 0 0 0 0 0 -0 0 0 0 0 0 0 0 0 0 0 0 0 0 -0 -0 0 0 -0 -0 0 0 -0 -1 -1 -0 -0 -0 -0 -0 0 0 1 0 0 0 1 2 2 1 1 1 2 1 -0 -0 -0 0 0 0 0 0 0 0 0 0 -0 nan
nan 0 0 0 0 -0 -1 -1 -0 -0 0 0 0 0 0 0 0 0 0 0 0 0 0 0 0 0 0 0 0 0 0 0 0 0 -0 -0 -0 0 -0 -0 -0 -0 -0 -0 -0 -0 0 0 0 0 0 0 1 2 2 2 1 1 1 0 0 0 -0 -0 -0 0 0 -0 0 1 0 0 0 nan
nan 0 0 0 0 -0 -1 -1 -0 0 0 0 0 -0 0 0 0 0 0 0 0 0 0 0 0 0 0 0 0 0 0 0 0 0 0 0 0 0 -0 -0 -0 -0 -0 -0 -1 -0 0 0 -0 0 0 -0 -0 0 1 2 2 1 0 0 0 0 0 0 1 1 0 -0 -0 0 0 0 0 nan
nan 0 0 -0 -0 -1 -1 -0 -0 0 0 -0 -0 -0 0 0 0 0 0 0 0 0 0 0 0 0 0 0 0 0 0 0 0 0 0 0 0 0 0 -0 0 0 -0 -0 -0 -0 -0 0 0 0 0 0 -0 -0 0 1 2 2 1 1 1 1 1 1 1 0 -0 -0 -0 -0 0 1 1 nan
nan 0 0 -0 -0 -1 -1 -0 -0 0 0 0 0 0 0 0 0 0 0 0 0 0 0 0 0 0 0 0 0 0 0 0 0 0 0 0 0 1 1 0 0 0 0 -0 -0 -0 -0 -0 0 0 0 0 0 -0 0 1 1 1 1 1 1 1 1 1 -0 -0 -0 0 0 -0 -0 0 0 nan
nan 0 -0 -0 -0 -1 -1 -0 0 0 0 0 0 -0 -0 -0 0 0 0 0 0 0 0 0 0 0 0 0 0 0 0 0 1 0 0 0 0 1 1 1 0 0 0 0 0 0 -0 -0 -0 0 0 0 0 0 0 0 1 1 1 1 1 1 1 0 0 1 1 1 1 0 0 0 0 nan
nan -0 -0 -0 -0 -1 -1 -0 0 -0 0 0 0 0 0 -0 0 0 0 0 0 0 0 0 0 0 0 0 0 0 0 0 0 0 0 0 1 1 1 1 1 0 0 0 0 0 0 0 0 0 1 0 0 0 0 0 0 1 1 1 1 1 1 1 1 1 1 1 1 1 1 0 0 nan
nan -0 -0 0 0 -1 -1 -0 -0 -0 0 0 0 0 0 0 0 0 0 0 0 0 0 0 -0 0 0 0 0 0 0 0 0 0 0 0 0 -0 0 1 1 0 0 0 0 1 1 1 0 0 0 0 0 0 0 0 0 1 1 1 1 1 1 1 1 1 1 1 0 -0 -0 0 1 nan
nan -0 -0 0 -0 -1 -0 -0 -0 -0 0 -0 0 0 0 0 0 0 0 0 0 0 0 -0 -0 0 0 0 0 0 0 0 0 0 0 0 -0 -0 0 1 1 0 0 0 0 1 1 1 1 0 0 0 0 0 0 0 1 1 1 1 1 1 1 1 1 1 1 1 -0 -1 -1 -1 -1 nan
nan -0 -0 -0 -1 -1 -0 -0 0 0 0 0 0 0 0 0 0 0 0 0 0 0 -0 -0 -0 0 0 0 0 0 0 0 0 0 0 0 0 0 0 1 1 1 1 0 0 0 1 0 1 0 0 0 0 0 0 1 1 1 1 1 1 1 1 1 1 1 1 0 -0 -0 -0 -1 -2 nan
nan -0 -0 -0 -0 -0 -0 0 -0 -0 -0 0 0 0 0 0 0 0 0 0 0 0 0 -0 -0 -0 -0 -0 0 0 -0 0 0 0 0 0 0 0 0 0 1 1 1 0 0 0 0 0 1 1 0 0 0 0 0 0 1 1 1 1 1 0 0 1 1 1 1 1 0 0 0 0 -0 nan
nan nan nan nan nan nan nan nan nan nan nan nan nan nan nan nan nan nan nan nan nan nan nan nan nan nan nan nan nan nan nan nan nan nan nan nan nan nan nan nan nan nan nan nan nan nan nan nan nan nan nan nan nan nan nan nan nan nan nan nan nan nan nan nan nan nan nan nan nan nan nan nan nan nan
Wind_Speed
9 8 8 9 8 8 8 8 8 8 10 11 10 10 10 8 6 5 5 6 7 10 13 12 13 16 18 22 26 28 29 29 31 35 38 39 38 38 40 41 40 40 40 40 40 38 38 40 42 44 44 45 46 45 43 40 38 37 34 31 29 28 29 30 30 31 31 32 32 32 32 31 30 30
8 8 9 9 8 8 8 8 8 9 10 10 10 10 10 11 9 7 7 7 8 12 15 14 16 19 21 23 26 27 26 27 30 35 37 36 35 38 40 40 39 39 39 41 40 38 38 40 43 45 46 47 47 45 43 41 39 37 34 32 32 31 30 31 30 29 31 33 33 31 32 31 30 29
9 9 9 9 9 8 8 9 9 9 10 10 8 8 9 11 12 10 8 9 10 12 15 17 18 19 22 24 24 24 24 25 29 33 35 34 34 37 38 37 38 37 38 40 40 38 38 41 44 46 46 46 46 44 43 41 40 38 35 34 34 34 33 33 33 33 33 34 34 31 31 32 31 29
9 8 8 8 8 8 6 7 8 8 10 10 8 7 7 8 11 11 9 11 13 13 15 18 19 19 21 23 22 22 23 25 28 31 33 34 34 35 36 36 36 35 37 40 39 37 39 43 46 46 46 45 45 43 42 40 40 39 37 35 34 34 34 34 33 34 33 33 33 32 31 32 33 31
10 9 8 7 8 9 6 5 5 5 8 9 7 7 6 6 8 10 9 11 14 16 16 17 18 18 20 22 21 22 24 25 26 29 32 33 33 34 35 36 36 35 37 38 37 38 41 44 45 45 45 45 44 42 41 41 40 39 38 36 34 33 33 33 33 33 33 32 32 33 31 32 34 33
9 9 9 8 8 8 8 6 4 4 7 6 5 5 5 6 7 9 10 10 14 17 18 18 18 18 19 21 21 21 23 25 26 29 32 32 33 34 35 36 35 35 37 37 36 39 42 44 45 45 45 45 44 43 43 42 40 38 37 36 35 33 32 32 32 33 34 32 31 31 31 32 34 35
9 9 9 8 7 7 6 6 4 5 7 5 4 5 6 7 8 10 10 11 13 17 19 19 18 19 19 20 21 22 23 24 27 30 32 32 34 36 37 36 34 34 36 36 35 38 41 42 43 43 44 45 45 44 43 41 38 35 34 33 33 33 32 31 31 31 33 33 32 31 31 32 34 36
8 8 8 7 6 5 4 4 3 3 5 5 4 6 6 7 9 11 10 11 13 16 19 19 19 19 20 20 21 22 23 25 28 29 30 33 37 38 37 35 33 34 35 34 35 38 39 40 42 43 44 44 44 41 39 38 34 32 31 32 32 32 32 30 29 29 30 32 34 35 34 33 34 37
8 7 6 5 4 3 3 2 1 2 4 5 4 6 7 7 10 12 11 12 13 15 18 19 20 19 19 20 21 21 24 28 29 28 29 36 41 40 37 33 31 33 33 33 36 39 38 39 42 43 42 41 39 37 35 35 34 32 31 31 30 31 30 28 28 28 28 30 32 34 35 34 35 37
8 7 6 5 5 5 4 2 1 2 4 5 5 7 8 9 11 12 12 13 14 15 17 18 19 19 20 21 21 21 25 28 29 29 33 38 40 38 37 35 32 31 31 33 36 39 40 42 42 41 39 38 36 35 35 36 34 32 30 29 28 28 27 26 25 25 26 27 28 31 34 34 35 37
7 7 6 5 5 5 4 3 1 2 4 5 6 7 9 10 12 13 13 14 14 15 16 17 18 19 20 20 21 24 26 26 27 31 36 40 39 35 34 35 34 31 31 33 37 40 41 40 39 37 36 36 35 34 35 35 33 30 29 28 27 26 26 25 25 24 24 24 25 28 31 33 35 37
7 7 6 5 5 4 3 1 1 2 4 6 6 8 9 11 12 13 14 13 14 16 16 17 18 20 21 20 22 25 26 25 29 33 36 38 39 36 34 34 33 31 31 35 40 43 40 36 36 36 35 34 34 34 34 33 31 29 29 28 28 29 30 30 30 28 26 25 25 25 28 30 32 36
8 6 5 5 4 2 1 0 2 3 5 6 8 9 10 12 13 14 14 14 15 18 19 18 19 20 21 22 24 26 25 26 31 36 35 34 36 37 35 34 31 30 32 38 42 42 39 37 36 36 36 36 35 34 32 31 29 29 30 32 34 35 36 35 35 34 32 30 29 28 27 27 29 32
7 6 6 4 3 3 2 1 2 4 5 7 8 10 10 11 13 14 15 17 18 20 21 21 21 21 21 23 25 25 25 27 32 35 35 34 36 36 36 35 32 29 33 41 44 41 38 39 40 39 38 37 36 35 32 31 32 32 33 35 37 38 37 36 36 35 34 34 33 32 31 29 27 29
6 7 6 5 3 2 1 1 2 3 5 6 7 9 10 12 14 15 16 18 20 22 23 24 23 21 22 25 25 24 26 30 33 34 34 34 35 36 37 38 35 33 35 42 47 46 41 40 44 45 41 37 37 36 35 34 35 35 35 36 38 38 38 37 36 35 35 34 33 33 33 32 30 29
6 7 7 6 3 1 2 3 4 4 5 6 7 10 13 15 16 17 18 19 21 22 23 24 23 21 23 26 26 25 28 32 33 34 35 34 34 35 35 37 37 37 38 40 45 49 45 42 47 49 43 38 38 37 35 35 35 35 35 35 36 36 36 35 35 35 36 35 34 32 32 32 31 31
8 8 6 4 3 3 3 3 3 5 6 7 8 11 14 16 17 19 20 20 22 24 23 22 23 23 23 25 27 28 30 33 34 35 36 36 35 35 35 37 39 39 38 40 45 48 47 49 55 55 47 39 36 34 34 36 36 34 32 31 32 33 33 32 30 29 31 34 34 32 31 31 31 31
12 9 6 4 5 5 4 3 3 4 6 7 8 10 11 13 15 17 18 20 24 25 24 23 23 23 23 25 28 29 30 33 34 36 39 39 36 35 36 37 37 35 35 39 44 47 49 54 60 60 52 43 37 34 34 36 37 35 32 31 32 34 33 31 29 26 25 28 31 31 30 30 30 30
11 10 10 9 7 6 5 4 4 5 6 8 8 8 9 11 12 12 14 19 22 23 23 23 23 23 23 25 27 29 31 32 34 36 38 36 33 34 35 35 34 32 33 37 41 46 50 54 60 62 57 48 42 41 40 39 37 34 31 28 29 29 27 27 26 25 23 23 25 26 27 27 28 29
9 10 10 8 6 6 6 5 5 6 7 8 8 8 10 12 11 10 14 19 21 22 22 22 22 22 23 24 27 29 31 33 35 37 36 32 31 33 34 34 34 34 35 37 41 45 51 55 60 62 57 49 47 48 49 45 37 32 28 24 23 21 20 20 20 20 20 19 20 21 22 23 25 26
9 11 10 8 7 7 6 5 5 6 7 7 8 8 10 12 11 12 16 20 21 21 21 21 22 23 25 27 29 30 31 33 34 34 32 31 31 33 33 34 36 36 36 38 42 47 51 54 59 60 55 49 47 49 55 50 37 30 28 24 20 18 16 17 18 18 18 17 17 17 18 19 21 23
10 11 10 8 8 8 6 6 6 6 7 7 8 9 10 11 12 14 18 20 21 21 21 22 24 25 26 26 27 27 29 31 32 30 30 31 31 31 33 35 37 36 35 38 44 49 50 53 58 60 56 52 48 49 56 53 40 33 31 27 22 18 16 16 16 16 17 15 15 14 14 15 17 19
10 11 9 8 8 8 6 6 7 7 7 7 9 10 11 11 14 16 18 19 21 23 24 24 23 23 23 23 23 24 26 29 30 29 30 30 30 31 33 34 35 36 36 40 46 48 48 51 56 58 56 54 52 53 56 53 43 38 35 29 24 19 17 15 14 14 15 15 13 13 12 13 14 16
11 11 9 8 8 8 7 7 7 7 7 8 9 10 11 11 14 16 17 18 22 25 24 23 22 21 21 21 22 23 25 27 29 31 32 31 29 30 32 33 33 35 36 39 44 46 47 49 53 55 53 49 51 56 57 53 48 43 38 31 26 21 17 15 13 12 13 12 10 10 11 12 13 15
11 9 8 9 8 7 7 8 8 8 8 8 9 10 11 11 12 15 17 20 23 22 21 20 20 20 21 21 22 23 24 26 30 32 33 32 30 30 31 31 33 35 36 37 40 43 45 47 51 55 53 49 50 54 56 55 53 48 40 33 27 20 15 13 12 11 11 10 8 7 8 10 12 14
10 8 8 11 11 8 7 9 9 8 8 8 9 10 10 11 11 14 17 20 19 18 18 18 19 20 20 21 22 23 24 26 29 31 32 32 31 30 29 29 31 34 35 35 36 40 43 45 48 53 55 53 52 53 53 55 56 51 42 34 24 14 10 13 13 12 11 9 6 3 4 5 9 12
9 7 11 16 13 9 9 10 9 9 9 9 9 10 11 11 11 14 17 16 15 16 16 17 19 19 20 21 22 24 26 27 28 29 30 32 32 32 31 30 29 30 32 32 33 37 41 43 46 50 53 54 54 53 52 53 55 53 45 33 18 11 12 13 12 10 7 7 5 3 2 1 6 10
10 12 15 16 12 9 10 10 9 9 8 8 9 10 11 11 11 12 14 13 14 15 15 17 19 19 20 21 22 24 27 27 27 28 30 32 32 32 33 32 30 28 29 29 30 34 38 41 44 47 50 51 52 51 49 50 53 53 47 33 17 10 14 13 8 6 6 5 4 3 3 1 5 10
17 19 17 14 10 9 10 9 9 9 8 8 9 9 11 12 10 8 10 13 13 14 15 17 18 18 20 21 22 24 26 26 26 27 29 32 32 32 34 34 32 29 29 29 29 31 34 38 41 46 49 49 50 50 48 49 53 52 48 38 22 13 14 13 8 6 6 4 2 2 6 8 4 6
19 17 15 12 10 10 9 9 7 6 7 8 8 8 9 11 8 6 10 13 12 12 14 16 17 18 19 21 21 23 25 26 26 27 29 31 31 32 34 35 34 32 30 28 28 30 31 34 38 43 46 47 48 50 49 49 53 54 49 39 28 20 17 15 13 10 6 2 1 3 6 10 11 6
15 14 13 11 10 10 9 8 6 6 8 9 8 8 10 10 8 9 11 13 11 11 14 16 16 17 19 20 21 22 24 25 26 26 29 30 31 32 33 33 34 35 33 30 30 30 31 32 36 40 43 44 46 49 50 50 53 58 54 43 33 28 22 16 17 16 8 4 6 8 8 6 9 10
14 13 13 11 10 9 9 8 8 10 11 10 8 8 9 9 9 10 11 12 10 11 14 15 15 17 19 19 21 22 24 25 26 26 29 31 31 32 33 32 33 35 35 33 33 33 32 33 35 37 39 42 45 47 50 53 55 59 60 51 38 29 23 19 19 18 14 11 10 12 13 10 7 8
14 13 11 9 8 9 9 10 11 11 10 9 9 9 10 10 9 9 10 10 9 11 14 14 15 17 18 19 20 22 24 25 25 26 29 31 31 30 32 33 33 34 35 34 35 35 34 34 36 36 36 39 44 45 48 53 56 57 61 59 47 33 24 21 20 18 16 13 11 10 11 11 9 7
14 13 11 10 9 10 11 11 12 11 10 10 10 10 11 10 10 9 10 10 10 12 14 14 14 17 18 18 20 21 23 25 25 26 27 30 30 30 30 33 34 34 34 34 34 35 35 35 36 37 36 36 40 43 45 48 53 55 57 61 58 46 31 22 19 17 14 11 10 9 8 7 6 4
14 13 13 12 11 11 11 12 12 12 12 12 12 11 11 11 10 11 11 10 11 13 13 13 15 17 17 18 20 21 22 23 24 25 26 27 29 29 29 32 34 33 33 33 34 34 34 34 35 38 37 36 37 41 43 46 50 53 55 57 60 56 43 29 21 18 15 12 10 9 8 6 4 4
15 14 12 11 10 10 11 12 12 13 12 12 12 12 12 11 11 11 11 10 12 13 13 14 15 16 16 18 19 20 21 21 22 23 24 26 28 28 29 32 34 32 32 33 33 33 33 33 34 36 36 36 36 38 40 43 47 50 52 53 55 58 54 41 29 21 17 17 16 13 11 10 7 5
16 14 13 12 11 11 12 12 12 13 12 12 12 12 12 12 11 11 11 11 12 12 12 14 15 15 16 17 18 19 20 20 21 22 23 25 27 28 29 32 32 31 32 34 34 32 31 32 34 35 34 33 34 35 36 39 43 46 48 49 50 53 55 52 43 32 23 20 21 19 15 13 12 8
17 16 15 14 12 12 13 13 12 12 12 12 12 12 12 12 12 11 10 11 11 11 12 13 14 15 16 16 16 18 20 20 21 21 21 24 27 28 29 30 29 30 34 36 35 32 31 31 33 34 33 31 32 33 34 36 39 42 44 46 46 49 52 55 54 47 36 26 20 19 17 14 13 12
18 17 17 15 13 12 13 13 13 13 13 12 12 12 12 12 11 11 11 11 10 11 12 13 14 15 16 15 15 18 19 20 20 20 20 24 28 30 31 29 27 29 35 38 36 34 32 31 33 34 32 31 30 30 30 31 34 38 40 42 44 46 48 51 53 53 50 40 28 21 18 15 12 9
19 19 18 16 14 13 14 14 13 13 13 13 12 12 12 12 12 11 11 10 10 11 12 14 14 15 15 14 15 17 18 18 19 19 20 24 28 31 30 28 26 29 34 35 35 35 34 32 33 33 30 29 28 26 26 27 29 34 38 40 41 42 43 46 50 52 52 50 42 31 23 20 17 13
18 19 19 17 15 15 15 14 14 14 13 13 13 13 13 13 13 12 12 12 13 14 14 15 15 14 14 15 15 16 17 18 18 18 20 24 29 30 29 26 25 30 33 31 32 37 37 33 33 31 29 29 28 27 28 29 30 33 36 36 38 40 39 40 45 48 49 49 50 46 37 31 29 26
17 18 17 16 16 15 15 15 14 14 14 13 13 13 13 13 13 13 14 15 15 14 14 14 14 13 14 15 15 16 16 17 18 19 21 25 27 26 26 26 27 30 31 29 30 36 38 36 33 31 30 31 30 29 30 31 29 31 35 34 33 36 38 37 39 44 47 48 49 51 48 42 39 38
16 17 16 16 16 16 15 15 14 14 14 14 13 13 13 13 13 13 14 13 13 12 13 13 13 13 14 15 15 15 16 17 18 21 22 23 22 22 25 27 28 29 29 28 31 35 37 37 34 31 30 32 31 28 29 31 28 28 34 35 31 31 34 35 35 38 44 46 46 46 47 46 43 42
17 17 17 16 16 16 15 15 15 14 14 14 13 13 13 13 13 13 13 13 13 13 14 13 13 14 15 15 15 15 17 18 20 21 20 19 19 22 25 27 27 29 29 28 31 35 37 36 35 30 28 30 31 28 28 30 28 26 31 36 34 29 29 31 32 33 38 42 43 42 43 44 43 41
18 18 17 16 16 16 15 15 14 14 14 13 13 13 13 13 13 13 13 14 14 14 14 14 15 15 15 15 15 17 19 19 20 18 18 19 22 24 25 26 28 30 29 28 31 35 36 36 35 32 27 28 31 29 26 27 28 26 28 34 36 31 27 28 28 29 32 36 38 38 38 38 39 38
Wind_Direction
139 138 134 127 122 117 111 106 99 97 91 83 78 70 64 59 31 0 349 349 340 341 348 343 337 342 344 347 354 359 357 352 350 352 352 349 344 340 339 340 339 336 333 330 328 326 324 322 321 319 317 315 314 312 309 307 305 302 297 292 289 287 284 279 272 270 272 273 269 268 270 268 265 260
141 138 131 124 120 116 108 101 91 86 84 75 66 63 56 49 45 26 351 337 332 338 345 343 339 344 348 347 352 354 348 342 343 347 348 342 334 334 337 337 335 332 329 326 324 321 319 319 318 316 314 312 310 307 305 305 305 303 299 294 290 286 282 279 274 270 270 270 267 265 266 266 264 259
138 134 129 120 113 104 94 92 85 77 79 73 54 48 43 31 33 33 358 328 331 334 333 339 342 339 342 346 345 339 334 333 338 342 341 334 330 333 334 331 330 328 323 321 321 320 318 317 315 314 312 310 309 307 306 305 304 303 299 294 289 285 281 278 274 270 270 270 267 263 262 263 263 258
136 131 127 124 114 102 85 75 72 68 70 69 53 39 32 13 11 17 354 321 328 337 332 333 336 332 333 339 334 327 327 329 333 336 334 331 329 328 327 327 327 324 321 320 320 319 317 316 315 313 312 311 309 308 306 305 304 302 301 297 291 285 281 280 276 272 270 270 267 261 256 258 260 258
138 130 123 123 121 117 111 81 63 63 63 54 41 32 20 357 352 354 345 322 323 341 344 333 329 327 326 328 328 325 324 325 327 330 330 329 328 326 324 324 324 321 320 319 319 321 320 318 315 313 312 311 310 309 308 306 305 303 303 301 297 290 284 282 279 274 270 268 267 262 254 252 256 257
140 133 128 126 122 117 111 98 82 84 77 51 24 26 8 345 343 340 339 327 317 327 338 332 325 324 321 322 326 325 322 323 325 327 329 329 327 326 324 321 321 321 320 319 322 323 320 316 313 311 311 310 310 310 308 307 305 304 303 303 301 296 290 285 281 276 271 267 267 264 254 248 251 255
139 134 133 128 118 105 94 85 69 77 83 59 11 14 4 338 337 340 336 327 314 314 323 327 324 321 321 322 323 324 323 323 324 326 329 329 329 330 327 321 319 320 322 325 326 322 316 313 312 312 311 310 309 308 306 305 303 303 304 305 304 300 294 289 284 278 272 266 265 263 254 244 245 250
140 134 131 125 115 101 89 76 52 65 81 65 12 0 1 337 334 346 344 325 313 310 314 320 322 321 322 323 323 325 325 324 324 326 327 328 332 334 330 323 320 321 324 326 324 321 318 315 314 312 311 310 309 308 308 308 307 305 305 306 305 303 298 293 287 281 275 268 264 262 256 245 241 246
146 141 136 130 125 115 105 98 79 76 73 64 30 3 4 351 344 356 354 330 316 313 312 316 320 322 324 324 325 328 327 326 327 326 326 332 338 338 331 325 322 322 325 326 325 323 320 317 315 313 312 312 312 314 316 316 314 310 307 305 305 304 301 296 290 285 280 273 267 263 258 249 241 242
151 151 153 148 152 153 147 148 122 63 53 52 30 7 6 3 358 0 355 338 325 319 317 318 321 324 326 327 327 329 328 328 328 327 327 334 340 337 330 326 324 323 325 326 325 324 322 319 317 316 315 316 318 319 317 315 313 311 310 308 307 306 303 298 293 288 284 279 274 267 260 252 244 242
157 157 159 164 174 168 158 148 105 36 26 33 22 6 5 3 1 0 353 343 334 326 322 322 324 326 328 330 328 328 330 329 329 330 330 334 336 332 326 325 325 325 326 326 326 326 325 322 321 321 320 319 319 316 313 312 312 312 313 311 307 304 301 298 294 290 286 282 278 272 263 255 248 243
163 159 165 184 189 171 155 141 62 23 12 18 12 4 3 1 360 1 355 344 335 332 330 328 329 329 331 331 328 329 332 331 330 334 332 329 329 328 324 324 326 325 327 329 328 329 329 326 326 327 324 320 318 314 312 311 311 312 311 306 302 299 297 295 292 288 285 283 280 276 268 260 251 245
163 170 190 191 185 181 172 107 21 8 4 7 6 2 1 359 359 0 359 350 342 343 342 336 334 334 332 331 329 330 333 330 330 336 334 326 325 325 323 324 327 327 330 331 330 331 333 329 326 326 325 323 320 316 313 311 309 306 301 296 295 294 293 290 288 285 283 281 280 278 273 265 255 248
171 189 215 202 179 203 211 67 17 6 6 5 2 359 356 356 357 356 356 353 349 349 347 343 341 336 329 329 330 330 329 329 332 337 335 327 326 326 324 324 327 329 330 328 326 329 334 333 329 327 325 323 322 318 314 310 305 300 296 294 292 291 290 288 286 284 282 279 278 276 273 268 260 252
190 195 219 234 220 220 260 342 353 3 10 4 359 355 349 349 352 351 349 350 351 349 346 346 344 334 326 329 332 328 328 333 338 339 334 328 326 326 325 324 324 328 331 328 324 325 331 335 335 332 327 322 320 317 312 309 306 302 299 296 292 289 287 286 284 283 280 277 276 274 272 268 262 255
210 207 218 238 249 284 303 318 333 343 353 353 350 351 349 346 345 343 342 345 349 349 345 345 344 335 329 332 334 332 333 338 342 339 333 329 326 324 323 320 319 326 331 328 324 324 329 336 336 334 331 325 320 316 313 310 307 304 300 296 293 290 288 286 285 282 278 274 272 272 271 268 263 256
209 215 222 243 265 284 291 310 330 332 337 342 345 349 348 342 335 334 337 339 342 345 344 342 341 338 335 335 337 340 342 343 341 335 332 332 328 322 320 317 318 324 330 328 325 324 329 336 338 337 336 331 325 321 317 315 312 311 311 308 303 299 293 287 286 286 280 271 266 266 266 265 262 257
207 209 205 218 251 271 284 300 312 321 330 336 345 347 336 326 325 327 329 331 334 339 340 337 336 338 339 340 344 347 347 344 339 334 334 335 329 320 317 317 318 324 329 328 327 325 328 335 339 340 341 338 335 331 325 322 319 317 315 311 305 301 297 288 281 283 283 272 264 262 262 262 261 258
209 211 203 201 219 244 259 280 301 318 326 329 342 345 325 321 328 323 315 320 327 331 334 333 332 334 339 344 347 350 350 345 340 337 336 333 325 318 318 319 320 324 328 329 328 327 329 334 338 342 342 341 341 341 338 332 325 318 311 304 299 301 303 297 286 280 278 272 265 262 262 262 260 257
208 218 212 202 216 241 254 271 294 310 318 325 337 340 327 328 336 323 312 320 330 332 332 330 329 334 342 347 350 353 352 346 340 336 334 329 323 321 321 322 323 326 331 331 329 328 330 334 338 342 343 342 342 346 348 344 334 327 321 313 308 309 310 307 302 293 284 275 269 266 265 264 260 257
214 222 213 203 215 233 253 271 289 305 313 324 334 334 334 337 337 324 319 327 335 334 331 333 338 344 346 346 346 347 347 344 339 334 329 326 326 325 324 324 325 327 331 332 331 332 332 334 338 342 344 344 343 347 351 351 344 337 332 325 320 317 310 305 304 301 296 288 280 275 271 267 262 256
218 230 221 213 223 233 251 272 285 299 308 326 337 336 340 340 331 325 330 336 337 338 343 349 349 345 340 337 336 335 337 340 338 332 326 326 328 327 325 325 324 326 330 334 334 333 332 334 339 343 345 345 346 349 352 352 350 345 339 329 318 310 305 303 300 296 296 292 286 282 278 271 262 252
218 236 231 221 235 246 259 273 282 295 311 331 339 340 344 336 329 334 340 340 342 351 358 353 342 336 334 332 330 329 332 336 338 335 332 330 329 326 325 325 325 326 330 335 335 332 332 334 340 346 347 344 345 351 354 354 352 348 342 333 320 307 297 293 292 293 295 292 287 284 277 268 259 245
218 236 240 232 236 247 261 273 282 296 314 331 339 345 345 336 334 340 342 347 359 3 356 342 333 334 335 333 332 332 332 335 340 345 343 336 330 327 325 325 326 325 326 332 333 331 331 334 339 346 350 344 342 348 354 355 354 350 346 340 330 315 299 289 284 287 294 294 288 282 268 255 247 236
218 232 247 248 243 246 262 274 285 299 313 330 341 344 344 341 341 343 349 3 10 359 341 335 337 338 338 338 337 337 335 335 342 347 345 337 331 329 326 325 326 324 325 330 332 330 332 336 339 344 349 347 343 346 350 353 355 354 350 346 338 323 313 317 309 294 294 296 287 283 273 249 234 226
216 218 229 242 249 256 268 275 285 297 309 327 338 341 344 347 345 350 4 13 4 343 334 339 342 340 342 342 341 340 338 337 339 341 339 336 334 332 330 327 326 324 325 330 333 332 333 337 339 342 346 346 345 347 349 351 354 355 355 353 349 343 346 342 321 301 300 302 290 292 301 253 223 217
211 206 221 237 248 258 267 275 286 296 308 325 336 343 348 348 348 3 15 9 346 333 338 342 342 343 346 344 342 342 340 338 338 337 337 339 339 337 335 332 329 327 326 330 336 335 334 337 340 342 344 344 345 347 348 351 354 356 357 360 3 8 3 344 318 306 312 308 290 289 327 260 190 194
205 207 225 239 248 256 264 276 287 291 304 326 339 348 352 353 2 13 10 351 333 334 340 341 342 344 344 343 343 342 341 341 341 339 340 343 343 340 337 336 335 334 333 335 340 339 336 337 340 343 345 345 346 347 348 352 357 358 359 2 10 15 3 350 331 326 337 325 301 309 351 23 166 174
206 214 228 240 248 255 263 275 285 292 308 328 343 351 350 355 7 7 345 332 331 336 339 340 342 342 342 343 342 341 342 344 344 343 344 345 344 342 340 340 340 339 338 340 343 342 339 339 341 345 347 347 348 350 351 355 0 4 5 6 10 19 17 14 8 344 339 343 334 30 50 49 76 155
215 222 231 237 242 252 263 273 287 310 322 327 337 339 335 345 354 329 317 325 328 331 337 339 339 340 340 340 341 342 344 345 346 346 346 345 344 344 343 341 341 341 342 345 346 346 346 343 342 346 349 349 350 352 356 359 3 9 13 13 17 25 30 33 35 20 359 359 56 90 71 45 33 49
223 224 227 234 243 253 262 270 288 325 329 329 336 326 317 324 317 294 308 325 324 324 333 335 335 337 339 339 341 344 345 345 346 347 347 346 346 346 344 343 342 342 344 346 348 349 351 349 348 349 351 350 350 353 359 4 7 13 17 20 24 28 28 32 37 36 41 84 84 92 107 78 38 45
220 223 227 234 244 253 267 280 293 309 315 317 317 301 289 292 289 288 308 322 317 318 327 329 331 335 337 339 341 343 344 345 345 347 350 350 348 347 347 346 344 344 345 346 348 350 352 352 352 353 353 352 351 353 0 5 9 15 19 22 25 30 33 37 41 44 61 84 85 92 110 119 100 94
216 223 230 239 251 262 272 277 279 284 287 284 281 276 274 279 283 286 301 308 304 312 322 325 329 333 335 336 340 341 342 343 344 347 353 353 350 349 350 349 347 346 346 345 347 349 351 352 354 355 356 355 354 354 359 4 7 13 18 22 24 28 34 42 47 50 61 75 85 99 114 124 129 131
217 221 226 235 247 256 260 261 261 264 264 265 270 273 275 278 278 281 291 296 297 308 317 319 324 329 331 333 336 338 338 341 344 348 352 353 352 351 351 351 350 349 348 347 347 349 350 351 353 356 358 358 357 357 358 1 4 9 15 20 23 24 27 39 50 53 57 66 83 102 114 126 140 140
222 224 228 232 237 244 252 256 257 258 261 265 268 271 274 274 274 280 287 290 295 304 312 316 320 325 328 330 332 333 334 338 343 346 349 351 352 351 350 351 351 349 348 349 349 350 351 352 353 355 357 359 360 359 358 358 1 6 12 17 21 24 27 32 42 55 63 68 80 103 115 118 153 196
225 229 234 239 243 246 250 253 254 255 260 264 266 269 273 273 274 278 281 286 294 302 309 314 318 323 326 328 329 331 333 337 341 343 346 349 351 351 352 353 354 352 350 351 351 351 352 354 355 356 357 358 359 359 358 357 358 3 8 12 16 21 25 30 39 53 65 67 68 79 95 101 120 179
228 230 233 239 244 248 250 251 253 255 257 261 266 269 272 273 275 277 279 285 294 300 306 313 317 321 325 327 329 331 333 336 338 339 343 348 350 349 350 352 353 352 351 353 354 352 353 355 357 357 357 356 355 355 355 355 356 359 4 8 11 15 21 28 36 43 51 62 65 65 71 84 97 115
230 231 233 234 236 244 249 250 252 254 256 261 266 269 271 274 276 276 277 284 292 297 305 313 316 318 322 324 326 329 331 332 335 336 339 344 348 351 351 350 349 350 355 359 357 354 353 355 357 358 358 356 353 351 351 352 355 358 3 7 9 11 16 24 30 35 39 48 61 64 61 64 73 80
232 234 236 236 234 241 247 249 251 254 256 260 264 267 271 273 274 274 277 282 288 295 303 310 313 314 319 321 323 327 330 332 334 335 335 341 348 353 355 352 348 350 358 1 359 355 355 355 355 357 357 356 354 351 350 352 355 357 1 5 7 9 13 18 23 28 33 37 45 59 68 69 70 76
236 237 238 235 234 240 246 248 251 253 257 260 263 266 270 271 272 275 276 276 282 291 298 304 306 310 314 318 322 327 329 331 333 333 332 338 347 354 355 352 347 350 357 0 358 358 358 356 354 355 356 355 355 354 354 358 1 1 1 3 6 8 11 15 18 22 27 30 35 44 58 66 67 68
242 242 242 237 235 239 244 248 251 254 257 261 263 266 269 269 270 271 268 268 278 289 294 297 301 307 313 317 321 325 326 328 332 331 330 338 349 354 352 347 344 350 355 356 356 360 3 1 358 357 356 356 359 1 1 3 5 5 4 2 3 6 10 12 15 18 21 25 30 33 37 45 52 53
242 241 241 238 237 240 243 247 251 254 256 260 263 266 269 268 268 269 268 271 280 289 294 296 300 307 313 316 319 322 322 324 329 329 330 338 345 346 343 341 342 347 351 351 352 359 5 5 1 360 359 359 1 3 3 3 4 6 7 5 2 4 7 8 11 15 17 21 26 29 29 33 40 43
236 235 236 236 236 240 243 247 250 254 257 260 262 265 267 267 267 268 270 273 279 284 288 293 297 303 309 313 316 319 320 322 325 325 328 333 336 334 335 340 342 342 345 347 350 356 1 4 2 359 358 359 0 359 1 4 4 3 8 10 8 6 7 6 7 11 15 19 23 25 25 27 33 38
234 235 236 235 237 240 243 247 251 253 256 259 261 263 264 265 266 268 269 271 275 278 283 289 293 297 303 309 313 315 317 319 320 322 324 327 328 329 335 340 341 341 342 343 345 351 356 360 1 360 356 356 359 358 358 3 4 1 4 11 13 11 10 8 6 6 11 17 21 22 22 23 26 31
234 235 235 237 240 242 245 249 251 252 255 259 261 262 263 262 264 268 270 272 275 279 281 285 289 291 295 300 305 311 316 318 318 318 320 323 326 330 335 339 340 343 343 340 341 347 352 355 359 0 355 353 359 0 357 359 3 1 1 8 13 14 14 13 10 7 9 14 19 21 21 21 20 21
Height
1553 1553 1554 1554 1554 1554 1554 1553 1553 1552 1551 1551 1550 1550 1550 1550 1550 1549 1548 1547 1547 1545 1543 1542 1540 1538 1536 1533 1530 1527 1524 1521 1519 1516 1513 1509 1506 1503 1500 1496 1493 1490 1486 1483 1480 1478 1476 1473 1470 1468 1465 1463 1460 1458 1456 1454 1452 1449 1448 1446 1445 1444 1443 1442 1441 1441 1440 1440 1442 1443 1444 1444 1445 1446
1553 1553 1554 1554 1554 1554 1554 1553 1553 1552 1551 1551 1551 1550 1550 1549 1549 1548 1548 1547 1546 1544 1542 1540 1538 1536 1534 1531 1528 1525 1523 1521 1518 1515 1511 1508 1505 1501 1497 1493 1490 1487 1484 1480 1478 1476 1473 1470 1467 1465 1462 1459 1457 1454 1452 1449 1447 1445 1444 1442 1441 1440 1439 1437 1436 1436 1436 1435 1436 1439 1439 1440 1440 1441
1554 1554 1554 1554 1554 1554 1554 1553 1553 1552 1551 1551 1551 1551 1550 1549 1548 1548 1547 1546 1545 1543 1541 1539 1537 1535 1532 1530 1527 1525 1523 1520 1517 1513 1510 1507 1503 1499 1495 1491 1489 1486 1482 1479 1476 1473 1470 1467 1464 1461 1458 1456 1453 1450 1448 1445 1443 1441 1440 1438 1437 1435 1434 1433 1432 1432 1431 1430 1431 1434 1435 1435 1436 1437
1554 1554 1554 1554 1554 1554 1554 1554 1553 1552 1551 1551 1551 1551 1550 1550 1548 1547 1547 1546 1544 1542 1540 1538 1536 1534 1531 1529 1527 1524 1522 1519 1516 1513 1509 1505 1502 1497 1493 1490 1487 1484 1480 1476 1473 1470 1468 1464 1461 1458 1455 1452 1449 1446 1443 1441 1439 1437 1435 1433 1432 1431 1429 1428 1428 1427 1427 1427 1426 1428 1431 1431 1431 1432
1553 1554 1554 1554 1554 1554 1554 1554 1553 1553 1552 1551 1551 1551 1550 1550 1549 1548 1547 1545 1543 1541 1539 1537 1535 1533 1531 1528 1526 1523 1520 1518 1515 1511 1508 1504 1500 1496 1491 1487 1484 1482 1478 1473 1470 1468 1465 1461 1457 1454 1451 1448 1445 1442 1439 1437 1434 1432 1430 1429 1427 1426 1425 1424 1423 1423 1422 1422 1422 1423 1426 1427 1427 1428
1553 1553 1554 1554 1554 1554 1554 1554 1553 1553 1552 1552 1552 1551 1550 1550 1549 1547 1546 1545 1543 1540 1538 1536 1534 1532 1530 1527 1524 1522 1519 1516 1513 1510 1506 1502 1499 1495 1490 1486 1482 1478 1475 1471 1468 1465 1462 1458 1454 1451 1447 1444 1440 1437 1435 1432 1430 1428 1426 1424 1423 1421 1420 1419 1419 1418 1418 1418 1418 1418 1420 1422 1423 1423
1553 1553 1554 1554 1554 1554 1554 1554 1553 1552 1551 1552 1551 1551 1550 1549 1548 1547 1545 1544 1542 1540 1537 1535 1533 1531 1529 1526 1523 1521 1519 1515 1512 1508 1504 1500 1497 1493 1488 1483 1479 1476 1472 1468 1466 1463 1460 1456 1452 1448 1444 1440 1436 1433 1430 1428 1425 1423 1422 1420 1419 1417 1416 1415 1414 1414 1414 1413 1413 1414 1415 1417 1418 1418
1553 1553 1554 1554 1554 1555 1554 1554 1553 1552 1551 1551 1551 1550 1549 1549 1547 1546 1544 1543 1542 1539 1536 1534 1532 1530 1528 1525 1523 1520 1517 1514 1511 1506 1502 1498 1494 1490 1486 1481 1477 1474 1470 1467 1464 1462 1458 1453 1449 1445 1440 1436 1432 1429 1426 1423 1421 1419 1418 1416 1415 1413 1412 1411 1410 1409 1409 1409 1409 1409 1410 1412 1413 1414
1554 1554 1554 1554 1555 1555 1554 1553 1553 1552 1551 1550 1550 1550 1549 1548 1547 1545 1543 1542 1541 1539 1536 1533 1531 1529 1527 1524 1521 1519 1516 1511 1507 1504 1501 1497 1491 1487 1483 1480 1476 1472 1467 1465 1462 1459 1455 1450 1445 1441 1437 1432 1428 1425 1422 1420 1417 1415 1414 1412 1411 1409 1408 1407 1406 1405 1405 1404 1404 1405 1406 1408 1409 1409
1553 1554 1554 1554 1554 1554 1553 1553 1552 1551 1551 1550 1549 1549 1548 1547 1545 1544 1542 1541 1540 1538 1536 1533 1530 1528 1526 1523 1520 1518 1514 1510 1505 1501 1498 1494 1490 1485 1480 1476 1474 1470 1466 1464 1460 1456 1452 1447 1442 1437 1433 1429 1425 1421 1418 1416 1414 1412 1410 1408 1407 1406 1405 1403 1403 1402 1401 1401 1401 1400 1401 1403 1404 1405
1553 1554 1554 1554 1554 1553 1552 1552 1552 1551 1550 1549 1549 1548 1547 1546 1544 1543 1541 1540 1539 1537 1535 1532 1530 1527 1524 1522 1519 1516 1513 1509 1505 1500 1494 1489 1486 1484 1479 1474 1471 1468 1465 1462 1458 1455 1450 1444 1439 1435 1430 1426 1422 1419 1416 1413 1411 1409 1407 1405 1404 1402 1401 1400 1400 1399 1398 1397 1397 1397 1397 1398 1400 1400
1553 1553 1553 1553 1553 1552 1552 1551 1551 1550 1550 1549 1548 1547 1546 1545 1543 1542 1541 1539 1538 1536 1534 1531 1529 1526 1523 1521 1518 1514 1511 1507 1504 1500 1494 1488 1483 1480 1477 1473 1469 1466 1463 1460 1456 1452 1447 1442 1436 1432 1428 1424 1420 1417 1413 1411 1408 1407 1405 1402 1401 1399 1398 1397 1396 1395 1395 1394 1393 1393 1393 1393 1395 1396
1552 1553 1552 1552 1552 1551 1551 1551 1550 1550 1549 1548 1547 1546 1545 1544 1542 1541 1540 1538 1537 1534 1532 1530 1527 1525 1522 1520 1516 1513 1510 1506 1502 1498 1494 1489 1483 1479 1475 1471 1469 1466 1462 1458 1454 1450 1446 1440 1434 1430 1425 1421 1417 1413 1410 1408 1405 1404 1402 1399 1397 1396 1394 1392 1391 1391 1390 1390 1390 1389 1389 1389 1390 1391
1552 1552 1552 1551 1551 1551 1550 1550 1550 1549 1548 1547 1547 1546 1545 1543 1542 1540 1539 1537 1535 1533 1531 1529 1526 1523 1521 1519 1516 1512 1509 1506 1502 1497 1493 1488 1483 1478 1472 1468 1466 1465 1461 1456 1451 1449 1445 1439 1432 1428 1423 1418 1414 1410 1407 1405 1402 1399 1397 1395 1393 1391 1389 1388 1387 1386 1385 1385 1385 1385 1385 1386 1386 1386
1552 1552 1552 1551 1550 1550 1549 1549 1549 1548 1548 1547 1546 1545 1544 1542 1541 1540 1538 1536 1534 1532 1530 1528 1526 1523 1520 1517 1515 1512 1508 1504 1500 1496 1492 1488 1483 1478 1472 1466 1462 1462 1459 1453 1448 1446 1443 1437 1430 1425 1421 1416 1411 1407 1404 1401 1398 1395 1392 1390 1387 1385 1383 1382 1381 1380 1380 1380 1380 1380 1381 1381 1382 1382
1552 1551 1551 1550 1550 1550 1549 1549 1548 1547 1547 1546 1545 1544 1543 1541 1540 1539 1537 1535 1533 1532 1529 1527 1525 1523 1519 1516 1513 1511 1507 1503 1499 1495 1492 1488 1483 1478 1473 1467 1461 1460 1458 1453 1446 1442 1440 1436 1430 1423 1419 1414 1408 1403 1400 1396 1393 1390 1387 1384 1382 1380 1378 1376 1376 1375 1375 1374 1375 1375 1376 1376 1377 1378
1551 1550 1550 1550 1550 1549 1549 1548 1548 1547 1546 1545 1544 1543 1542 1540 1539 1537 1536 1534 1532 1530 1528 1526 1524 1522 1519 1515 1512 1510 1506 1501 1498 1494 1491 1487 1483 1478 1474 1469 1463 1460 1457 1451 1445 1440 1437 1434 1428 1421 1416 1411 1405 1399 1396 1392 1388 1385 1382 1379 1377 1375 1373 1371 1370 1370 1369 1369 1369 1370 1371 1372 1372 1373
1549 1549 1550 1550 1550 1549 1548 1547 1547 1546 1546 1545 1544 1543 1542 1541 1539 1537 1535 1533 1531 1530 1528 1526 1523 1521 1518 1515 1511 1508 1505 1501 1498 1494 1489 1485 1481 1478 1474 1469 1464 1461 1457 1451 1444 1438 1433 1430 1424 1418 1413 1407 1402 1397 1392 1388 1384 1380 1377 1375 1372 1370 1368 1366 1365 1365 1364 1364 1364 1365 1366 1367 1368 1369
1548 1548 1549 1549 1549 1548 1547 1547 1546 1546 1545 1544 1543 1543 1542 1541 1540 1538 1536 1534 1532 1530 1528 1525 1523 1520 1518 1514 1511 1508 1505 1501 1498 1495 1490 1485 1481 1478 1473 1468 1464 1460 1457 1451 1444 1437 1432 1428 1423 1416 1410 1405 1400 1395 1389 1384 1380 1376 1372 1369 1367 1366 1364 1362 1361 1360 1360 1360 1360 1361 1362 1363 1364 1365
1547 1547 1547 1548 1548 1547 1546 1546 1546 1545 1544 1544 1543 1542 1541 1540 1539 1538 1536 1534 1532 1530 1527 1525 1522 1519 1517 1514 1510 1507 1504 1500 1497 1493 1489 1486 1482 1478 1472 1467 1462 1459 1456 1451 1445 1439 1433 1428 1422 1416 1409 1403 1397 1392 1387 1380 1375 1371 1367 1365 1363 1361 1360 1359 1358 1357 1357 1357 1357 1358 1358 1359 1360 1361
1546 1546 1546 1547 1547 1546 1546 1545 1545 1544 1544 1543 1542 1541 1540 1539 1538 1537 1535 1532 1530 1528 1526 1523 1520 1517 1514 1512 1509 1506 1503 1500 1497 1493 1489 1485 1482 1477 1471 1466 1461 1458 1454 1450 1445 1440 1433 1428 1422 1415 1409 1403 1397 1390 1384 1378 1372 1368 1365 1362 1360 1358 1357 1357 1356 1355 1355 1355 1355 1355 1355 1356 1356 1358
1545 1545 1545 1545 1546 1545 1545 1544 1544 1544 1543 1542 1541 1540 1539 1538 1537 1536 1533 1531 1529 1527 1524 1521 1518 1515 1513 1511 1509 1506 1504 1501 1497 1494 1490 1486 1481 1477 1472 1467 1461 1457 1453 1449 1445 1439 1433 1428 1422 1413 1405 1400 1396 1391 1383 1376 1371 1367 1363 1360 1358 1356 1355 1354 1353 1353 1352 1352 1352 1352 1352 1353 1353 1354
1545 1544 1544 1544 1544 1544 1544 1544 1543 1543 1542 1541 1540 1539 1538 1537 1536 1534 1532 1529 1527 1524 1520 1518 1517 1516 1514 1512 1509 1507 1504 1501 1498 1494 1490 1486 1482 1478 1473 1468 1462 1456 1452 1448 1444 1439 1433 1428 1423 1416 1405 1395 1390 1387 1382 1376 1371 1367 1362 1358 1354 1353 1352 1351 1350 1350 1350 1350 1350 1350 1350 1350 1351 1351
1544 1543 1543 1543 1543 1543 1543 1543 1542 1542 1541 1540 1539 1538 1536 1536 1534 1532 1531 1529 1525 1521 1519 1519 1518 1516 1514 1512 1509 1507 1504 1500 1497 1493 1489 1485 1483 1479 1473 1469 1465 1459 1454 1450 1445 1439 1434 1428 1423 1419 1413 1403 1392 1385 1380 1375 1371 1366 1361 1356 1352 1350 1349 1348 1348 1347 1347 1348 1348 1348 1348 1348 1348 1349
1544 1543 1542 1542 1542 1542 1542 1542 1541 1541 1540 1539 1538 1537 1536 1534 1533 1531 1530 1526 1523 1522 1522 1521 1519 1516 1514 1512 1509 1506 1503 1500 1496 1492 1488 1485 1483 1479 1474 1470 1465 1460 1455 1451 1446 1440 1435 1429 1423 1418 1414 1408 1399 1389 1380 1375 1370 1365 1360 1355 1351 1348 1347 1347 1346 1346 1345 1346 1346 1346 1346 1346 1346 1347
1543 1543 1543 1541 1541 1541 1541 1541 1540 1540 1539 1538 1537 1536 1535 1533 1532 1531 1528 1525 1523 1524 1523 1521 1518 1516 1514 1511 1509 1506 1503 1499 1495 1491 1488 1485 1482 1478 1475 1471 1466 1461 1455 1451 1448 1442 1436 1431 1425 1418 1412 1406 1399 1392 1383 1374 1368 1363 1359 1354 1350 1348 1347 1346 1345 1345 1344 1344 1345 1345 1345 1344 1345 1346
1543 1543 1541 1539 1539 1540 1540 1540 1539 1538 1538 1537 1536 1535 1534 1532 1531 1530 1527 1525 1526 1525 1523 1521 1519 1516 1514 1511 1509 1506 1502 1499 1495 1492 1488 1484 1480 1477 1474 1471 1468 1463 1457 1453 1449 1443 1437 1432 1426 1420 1413 1406 1399 1392 1386 1378 1370 1362 1356 1353 1350 1349 1347 1346 1345 1344 1344 1344 1344 1345 1344 1344 1344 1345
1541 1540 1538 1538 1538 1539 1539 1538 1538 1537 1537 1536 1535 1534 1533 1532 1530 1528 1527 1527 1527 1525 1523 1521 1519 1516 1514 1512 1509 1506 1502 1499 1496 1493 1488 1484 1480 1476 1472 1469 1466 1463 1458 1454 1449 1444 1438 1433 1428 1422 1416 1410 1403 1395 1389 1382 1375 1367 1360 1354 1350 1349 1348 1346 1345 1344 1344 1344 1344 1345 1345 1344 1344 1345
1536 1536 1536 1537 1537 1538 1537 1537 1537 1536 1535 1535 1534 1533 1532 1531 1529 1528 1529 1528 1526 1524 1523 1521 1519 1516 1514 1512 1509 1506 1503 1500 1496 1492 1488 1484 1480 1476 1472 1468 1465 1462 1458 1454 1450 1446 1439 1434 1429 1423 1417 1412 1406 1399 1393 1385 1378 1372 1365 1357 1352 1350 1349 1347 1346 1346 1345 1345 1345 1345 1345 1345 1346 1346
1534 1535 1535 1536 1536 1536 1536 1536 1536 1535 1534 1534 1533 1532 1531 1530 1529 1529 1529 1528 1526 1524 1523 1521 1519 1517 1514 1512 1509 1506 1503 1500 1496 1492 1488 1484 1480 1476 1472 1467 1463 1460 1457 1453 1450 1446 1441 1436 1430 1424 1418 1413 1407 1401 1395 1388 1381 1375 1369 1362 1356 1352 1350 1348 1347 1346 1346 1345 1346 1346 1346 1347 1348 1349
1533 1534 1534 1535 1535 1535 1535 1535 1535 1534 1534 1533 1532 1530 1530 1530 1529 1529 1529 1527 1525 1524 1523 1521 1519 1517 1514 1511 1509 1506 1503 1500 1496 1493 1489 1485 1481 1477 1473 1468 1463 1458 1455 1452 1450 1446 1442 1437 1431 1425 1420 1414 1409 1404 1397 1391 1385 1377 1371 1365 1361 1356 1353 1350 1348 1347 1347 1347 1347 1348 1349 1350 1352 1352
1532 1532 1533 1533 1533 1533 1533 1533 1533 1532 1532 1531 1531 1531 1531 1531 1530 1529 1527 1526 1525 1524 1522 1520 1518 1516 1514 1511 1509 1506 1503 1500 1496 1493 1490 1487 1483 1478 1474 1469 1465 1459 1454 1451 1449 1446 1442 1438 1433 1427 1422 1416 1410 1405 1399 1393 1387 1381 1374 1368 1364 1360 1356 1353 1350 1350 1350 1349 1350 1351 1351 1353 1354 1354
1530 1531 1531 1532 1532 1532 1532 1532 1532 1532 1532 1532 1532 1531 1531 1530 1529 1528 1527 1525 1525 1523 1521 1520 1518 1516 1514 1511 1509 1507 1503 1500 1497 1494 1492 1488 1484 1480 1475 1471 1466 1460 1455 1451 1448 1444 1441 1438 1433 1429 1424 1418 1412 1407 1400 1395 1390 1385 1380 1374 1368 1364 1360 1356 1354 1353 1353 1353 1353 1354 1354 1355 1356 1356
1528 1529 1529 1530 1531 1531 1532 1532 1532 1532 1532 1531 1531 1530 1529 1528 1527 1527 1525 1524 1524 1522 1520 1519 1517 1515 1513 1511 1509 1507 1503 1500 1498 1495 1492 1489 1485 1480 1477 1472 1467 1462 1458 1454 1450 1445 1441 1438 1434 1429 1425 1421 1415 1409 1403 1399 1395 1390 1385 1380 1375 1370 1365 1361 1358 1356 1355 1355 1355 1356 1356 1357 1357 1357
1526 1527 1527 1528 1529 1530 1530 1531 1531 1531 1530 1530 1529 1528 1527 1527 1526 1525 1524 1523 1522 1521 1519 1518 1516 1514 1513 1511 1509 1506 1503 1500 1498 1496 1492 1490 1486 1482 1478 1473 1468 1464 1460 1456 1452 1447 1443 1439 1435 1430 1426 1422 1418 1412 1406 1402 1399 1394 1389 1385 1381 1376 1371 1367 1363 1360 1359 1358 1358 1357 1358 1358 1359 1359
1524 1525 1526 1526 1527 1528 1528 1529 1529 1529 1528 1528 1527 1526 1526 1525 1524 1523 1523 1522 1521 1520 1518 1517 1516 1514 1512 1510 1508 1506 1503 1501 1499 1496 1493 1490 1487 1483 1479 1475 1470 1466 1462 1458 1454 1450 1446 1442 1437 1433 1428 1424 1420 1415 1410 1406 1403 1398 1394 1390 1386 1383 1378 1374 1369 1365 1362 1361 1360 1359 1359 1360 1360 1360
1523 1523 1524 1525 1525 1526 1527 1527 1527 1527 1526 1526 1526 1525 1524 1524 1523 1522 1521 1520 1519 1519 1517 1516 1515 1513 1512 1510 1507 1505 1503 1501 1499 1496 1493 1491 1488 1484 1480 1475 1471 1468 1464 1460 1455 1452 1448 1444 1440 1436 1432 1428 1423 1419 1416 1412 1408 1403 1399 1395 1391 1388 1384 1379 1373 1370 1367 1365 1363 1362 1362 1362 1361 1361
1520 1521 1522 1522 1523 1524 1525 1525 1525 1525 1525 1524 1524 1523 1523 1522 1521 1521 1520 1519 1518 1517 1516 1515 1514 1512 1510 1509 1507 1505 1503 1501 1499 1496 1494 1491 1488 1484 1481 1476 1472 1470 1466 1461 1457 1454 1451 1447 1443 1439 1436 1432 1428 1423 1419 1415 1411 1407 1404 1400 1396 1393 1388 1383 1379 1376 1373 1370 1367 1366 1365 1365 1364 1363
1518 1519 1520 1520 1521 1522 1523 1523 1523 1523 1523 1522 1522 1521 1521 1520 1519 1519 1518 1518 1517 1516 1515 1514 1512 1511 1509 1507 1506 1504 1502 1500 1498 1496 1494 1491 1488 1485 1481 1477 1474 1471 1467 1463 1459 1456 1452 1449 1446 1442 1439 1436 1433 1429 1425 1420 1416 1412 1407 1404 1400 1396 1392 1389 1385 1381 1378 1375 1373 1370 1368 1367 1366 1365
1516 1517 1517 1518 1519 1520 1521 1521 1521 1521 1521 1520 1520 1519 1519 1518 1518 1517 1517 1516 1515 1514 1513 1512 1511 1509 1508 1506 1505 1504 1502 1500 1498 1496 1494 1491 1488 1485 1481 1478 1476 1473 1469 1464 1461 1458 1454 1451 1448 1445 1443 1440 1437 1433 1430 1426 1421 1416 1411 1407 1404 1400 1397 1394 1390 1386 1383 1380 1378 1375 1371 1369 1367 1366
1514 1514 1515 1515 1516 1518 1519 1519 1519 1519 1519 1518 1518 1517 1517 1516 1516 1515 1515 1514 1513 1512 1511 1510 1509 1508 1507 1506 1504 1503 1501 1499 1498 1496 1493 1491 1488 1485 1482 1479 1477 1474 1470 1466 1463 1460 1456 1453 1450 1447 1445 1442 1438 1434 1430 1426 1423 1419 1415 1410 1407 1404 1401 1398 1395 1391 1388 1385 1381 1377 1374 1371 1368 1366
1512 1513 1513 1514 1514 1515 1516 1516 1517 1517 1516 1516 1516 1515 1515 1514 1514 1513 1512 1512 1511 1510 1509 1508 1508 1507 1506 1505 1503 1502 1500 1499 1497 1495 1493 1490 1487 1484 1482 1480 1477 1474 1471 1468 1465 1462 1459 1455 1452 1448 1446 1442 1438 1435 1431 1428 1426 1423 1419 1415 1411 1407 1404 1402 1399 1396 1393 1388 1383 1379 1377 1374 1370 1367
1511 1512 1512 1512 1513 1514 1514 1514 1514 1514 1514 1514 1514 1513 1513 1512 1512 1511 1511 1510 1509 1509 1508 1507 1507 1506 1505 1503 1502 1501 1499 1498 1496 1494 1492 1490 1487 1485 1483 1480 1478 1475 1472 1469 1467 1464 1461 1457 1453 1450 1447 1444 1440 1437 1435 1432 1429 1427 1423 1420 1416 1412 1409 1405 1402 1399 1396 1392 1388 1385 1383 1380 1376 1374
1510 1510 1510 1511 1511 1512 1512 1512 1512 1512 1512 1512 1511 1511 1511 1510 1510 1509 1509 1508 1508 1507 1506 1506 1505 1504 1503 1502 1501 1500 1498 1497 1495 1493 1491 1489 1488 1486 1483 1480 1478 1475 1473 1470 1467 1464 1461 1458 1455 1452 1449 1446 1443 1440 1437 1435 1432 1430 1427 1423 1420 1417 1413 1410 1407 1404 1401 1397 1393 1390 1389 1386 1384 1383
1507 1508 1509 1509 1509 1510 1510 1510 1510 1510 1510 1510 1509 1509 1508 1508 1507 1507 1507 1506 1506 1505 1504 1504 1503 1502 1501 1500 1499 1498 1497 1495 1494 1492 1491 1489 1487 1485 1483 1480 1478 1475 1473 1470 1468 1465 1462 1459 1456 1453 1451 1449 1445 1442 1440 1437 1435 1433 1429 1426 1422 1419 1417 1415 1412 1409 1405 1402 1399 1397 1395 1392 1390 1389